[Iaude] MPEC V52: 2023 VH1 [a=0.86,e=0.24,i=30.9,H=23.3]
    mpec at marsden.cfa.harvard.edu 
    mpec at marsden.cfa.harvard.edu
       
    Sun Nov  5 16:22:35 EST 2023
    
    
  
M.P.E.C. 2023-V52                              Issued 2023 November 5, 21:20 UT
     The Minor Planet Electronic Circulars contain information on unusual
         minor planets, routine data on comets and natural satellites,
         and occasional editorial announcements.  They are published
    on behalf of Division F of the International Astronomical Union by the
          Minor Planet Center, Smithsonian Astrophysical Observatory,
                          Cambridge, MA 02138, U.S.A.
			  
             Prepared using the Tamkin Foundation Computer Network
                              MPC at CFA.HARVARD.EDU
            URL https://www.minorplanetcenter.net/    ISSN 1523-6714
                                    2023 VH1                                    
Observations:
     K23V01H*1C2023 11 04.10890322 22 23.221-07 14 53.95         18.82GVEV052703
     K23V01H 1C2023 11 04.11415122 22 21.508-07 12 55.58         18.81GVEV052703
     K23V01H 1C2023 11 04.11940822 22 19.700-07 10 57.36               VEV052703
     K23V01H 1C2023 11 04.12466922 22 17.900-07 09 00.32         18.55GVEV052703
     K23V01H KC2023 11 04.23461922 21 41.692-06 28 19.78         20.25GVEV052I52
     K23V01H KC2023 11 04.23565022 21 41.368-06 27 57.38         20.59GVEV052I52
     K23V01H KC2023 11 04.25378622 21 35.633-06 21 18.22         19.20GVEV052I52
     K23V01H KC2023 11 04.25437822 21 35.474-06 21 05.22         19.90GVEV052I52
     K23V01H KC2023 11 04.25496022 21 35.276-06 20 52.87         19.29GVEV052I52
     K23V01H KC2023 11 04.34362 22 21 14.60 -05 46 26.5          19.4 RqEV052E94
     K23V01H KC2023 11 04.35569 22 21 10.68 -05 42 06.8          19.4 RqEV052E94
     K23V01H KC2023 11 04.36776 22 21 07.01 -05 37 46.7          19.4 RqEV052E94
     K23V01H KC2023 11 04.37945 22 21 03.18 -05 33 34.4          19.5 RqEV052E94
     K23V01H KC2023 11 04.78117522 19 19.915-03 17 44.63         20.0 GVEV052J95
     K23V01H KC2023 11 04.79960522 19 14.676-03 11 36.49         19.4 GVEV052J95
     K23V01H KC2023 11 04.80494022 19 13.152-03 09 49.75         19.5 GVEV052J95
     K23V01H KC2023 11 04.87556622 18 52.80 -02 46 21.2          19.5 GXEV052958
     K23V01H KC2023 11 04.88962822 18 48.84 -02 41 43.8          18.9 GXEV052958
     K23V01H |C2023 11 05.04381 22 18 12.05 -01 49 36.1          19.8 VuEV052807
     K23V01H |C2023 11 05.05037 22 18 10.18 -01 47 30.8          19.7 VuEV052807
     K23V01H |C2023 11 05.05694 22 18 08.32 -01 45 25.5          20.1 VuEV052807
     K23V01H KC2023 11 05.77425 22 15 29.02 +01 46 45.9          20.2 GVEV052587
     K23V01H 0B2023 11 05.77509 22 15 28.05 +01 49 03.0          20.1 VZEV052M49
     K23V01H KC2023 11 05.77546 22 15 28.76 +01 47 06.8                VEV052587
     K23V01H KC2023 11 05.77666 22 15 28.46 +01 47 26.9                VEV052587
     K23V01H 0B2023 11 05.78620 22 15 25.26 +01 52 09.8          20.6 VZEV052M49
     K23V01H 0B2023 11 05.79785 22 15 22.33 +01 55 25.8          20.9 VZEV052M49
     K23V01H 7C2023 11 05.80869022 15 21.786+01 56 37.77         20.4 GVEV052Z84
     K23V01H IC2023 11 05.81372022 15 19.16 +01 57 50.2          20.5 GVEV052L01
     K23V01H KC2023 11 05.81718322 15 18.26 +01 58 48.8          20.5 GVEV052L01
Observer details:
587 Sormano.  Observers F. Manca, A. Testa.  Measurer F. Manca.  0.5-m f/6.8
    reflector + CCD.
703 Catalina Sky Survey.  Observer J. K. Hogan.  Measurers E. C. Beshore, D.
    Fay, J. B. Fazekas, D. C. Fuls, A. R. Gibbs, A. D. Grauer, H. Groeller, J.
    K. Hogan, R. A. Kowalski, S. M. Larson, G. J. Leonard, D. Rankin, R. L.
    Seaman, F. C. Shelly, K. W. Wierzchos.  0.68-m Schmidt + 10K CCD.
807 Cerro Tololo Observatory, La Serena.  Observers T. Linder, R. Holmes, L.
    Horn.  0.61-m f/6.5 Dall-Kirkham Astrograph + CCD.
958 Observatoire de Dax.  Observers P. Dupouy, J. B. de Vanssay.  Measurer P.
    Dupouy.  0.43-m f/2.7 Reflector + CCD.
E94 Possum Observatory, Gisborne.  Observer J. Drummond.  0.41-m f/4.5
    Newtonian + CCD.
I52 Steward Observatory, Mt. Lemmon Station.  Observer D. Rankin.  Measurers
    E. C. Beshore, D. Fay, J. B. Fazekas, D. C. Fuls, A. R. Gibbs, A. D.
    Grauer, H. Groeller, J. K. Hogan, R. A. Kowalski, S. M. Larson, G. J.
    Leonard, D. Rankin, R. L. Seaman, F. C. Shelly, K. W. Wierzchos.  1.0-m
    prime focus + CCD.
J95 Great Shefford.  Observer P. Birtwhistle.  0.41-m f/6.3 Schmidt-Cassegrain
    + CCD.
L01 Visnjan Observatory, Tican.  Observer K. Korlevic.  1.0-m f/2.9 reflector
    + CCD.
M49 IAS Remote Observatory, Hakos.  Observers D. Husar, M. Junius.  Measurer
    D. Husar.  0.25-m f/4.5 reflector + CMO.
Z84 Calar Alto-Schmidt.  Observers F. Ocana, R. Kresken, M. Micheli, L.
    Conversi.  Measurers F. Ocana, R. Kresken, M. Micheli.  0.8-m f/3
    Schmidt + CCD.
Orbital elements:
2023 VH1                                                 Earth MOID = 0.0259 AU
Epoch 2023 Sept. 13.0 TT = JDT 2460200.5                Veres                   
M  66.89560              (2000.0)            P               Q                  
n   1.22528450     Peri.  212.56643     -0.39158610     +0.86619966             
a   0.8649243      Node    37.22447     -0.69540991     -0.05768083             
e   0.2380066      Incl.   30.87300     -0.60254907     -0.49635780             
P   0.80           H   23.35          G   0.15           U   7                  
Residuals in seconds of arc
231104 703  0.5-  0.4-    231104 E94  1.0-  0.3-    231105 807  0.1-  0.1-
231104 703  0.4+  0.3+    231104 E94  1.3+  0.2+    231105 587  0.4-  0.6-
231104 703  0.0   0.7+    231104 E94  0.8-  1.5+    231105 M49  0.0   0.1-
231104 703  0.4-  0.0     231104 J95  0.4-  0.0     231105 587  0.1+  0.1-
231104 I52  0.0   0.1+    231104 J95  0.0   0.1-    231105 587  0.0   0.2-
231104 I52  0.1+  0.2-    231104 J95  0.0   0.2+    231105 M49  0.2+  0.2-
231104 I52  0.1+  0.4+    231104 958  0.7-  1.1-    231105 M49  0.1+  0.2+
231104 I52  0.5+  0.4+    231104 958  0.6-  0.4-    231105 Z84  0.0   0.2-
231104 I52  0.2+  0.1-    231105 807  0.2+  0.1+    231105 L01  0.6+  0.0
231104 E94  0.0   0.0     231105 807  0.0   0.0     231105 L01  0.4-  0.7+
Ephemeris:
2023 VH1                 a,e,i = 0.86, 0.24, 31                  q = 0.6591
Date    TT    R. A. (2000) Decl.     Delta      r    Elong.  Phase     V
2023 10 06    09 12 03.3 -55 19 28   0.2368  0.9287    65.9   100.7    23.7
...
2023 10 21    07 46 48.6 -71 28 52   0.1078  0.9820    79.6    94.2    21.8
...
2023 10 29    23 36 37.2 -59 42 42   0.05750 1.0058   100.8    76.0    19.8
...
2023 11 04    22 22 55.2 -07 54 55   0.06863 1.0214   113.6    62.8    19.8
2023 11 05    22 18 24.5 -02 04 48   0.07476 1.0238   113.5    62.7    20.0
2023 11 06    22 14 42.6 +02 49 58   0.08157 1.0261   113.0    62.8    20.2
...
2023 11 12    22 02 17.9 +20 05 06   0.1299  1.0389   108.7    64.5    21.3
...
2023 11 20    21 57 30.3 +29 26 44   0.2008  1.0527   103.3    66.0    22.3
...
2023 12 05    22 00 54.3 +36 43 41   0.3318  1.0682    95.2    66.8    23.5
M. P. C. Staff               (C) Copyright 2023 MPC           M.P.E.C. 2023-V52
    
    
More information about the Iaude
mailing list